Tekamah, NE

5:46 PM CDT on May 25, 2017 (GMT -0500)
Tekamah

Weather History for KTQE - March, 2012

Change the Weather History Date:

Saturday, March 3, 2012

  Actual Average Record
Temperature  
Mean Temperature 30 °F -  
Max Temperature 39 °F 43 °F 74 °F (1992)
Min Temperature 21 °F 22 °F -9 °F (2002)
Degree Days  
Heating Degree Days 35    
Moisture  
Dew Point 18 °F    
Average Humidity 62    
Maximum Humidity 85    
Minimum Humidity 41    
Precipitation  
Precipitation 0.00 in - - ()
Sea Level Pressure  
Sea Level Pressure 29.94 in    
Wind  
Wind Speed 16 mph (NW)    
Max Wind Speed 22 mph    
Max Gust Speed 30 mph    
Visibility 10 miles    
Events      
Averages and records for this station are not official NWS values.
T = Trace of Precipitation, MM = Missing Value Source: NWS Daily Summary

Daily Weather History Graph

Daily Weather History Graph

Search for Another Location

Airport or City:

Trip Planner

Search our weather history database for the weather conditions in past years. The results will help you decide how hot, cold, wet, or windy it might be!

Date:

Astronomy

Mar. 03, 2012 Rise Set
Actual Time 6:55 AM CST 6:18 PM CST
Civil Twilight 6:27 AM CST 6:45 PM CST
Nautical Twilight 5:55 AM CST 7:18 PM CST
Astronomical Twilight 5:23 AM CST 7:50 PM CST
Moon 1:25 PM CST (3/3) 3:37 AM CST (3/3)
Length of Visible Light 12h 18m
Length of Day
11h 22m
Waxing Gibbous, 75% of the Moon is Illuminated
Mar 3
Waxing Gibbous
Mar 8
Full
Mar 14
Last Quarter
Mar 22
New
Mar 30
First Quarter

Hourly Weather History & Observations

Time (CST) Temp. Windchill Dew Point Humidity Pressure Visibility Wind Dir Wind Speed Gust Speed Precip Events Conditions
12:54 AM 28.9 °F 16.1 °F 19.0 °F 67% 29.90 in 10.0 mi WNW 19.6 mph 24.2 mph N/A   Clear
1:54 AM 28.0 °F 15.7 °F 19.0 °F 69% 29.91 in 10.0 mi West 17.3 mph - N/A   Clear
2:54 AM 28.0 °F 16.1 °F 19.0 °F 69% 29.90 in 10.0 mi WNW 16.1 mph 25.3 mph N/A   Partly Cloudy
3:54 AM 28.0 °F 14.6 °F 18.0 °F 66% 29.90 in 10.0 mi WNW 20.7 mph 25.3 mph N/A   Overcast
4:10 AM 28.4 °F 17.0 °F 17.6 °F 64% 29.89 in 10.0 mi WNW 15.0 mph - N/A   Overcast
4:36 AM 26.6 °F 15.2 °F 17.6 °F 69% 29.90 in 10.0 mi WNW 13.8 mph - N/A   Scattered Clouds
4:54 AM 26.1 °F 14.0 °F 18.0 °F 71% 29.93 in 10.0 mi WNW 15.0 mph - N/A   Clear
5:54 AM 26.1 °F 14.5 °F 18.0 °F 71% 29.95 in 10.0 mi WNW 13.8 mph - N/A   Clear
6:54 AM 25.0 °F 14.8 °F 17.1 °F 72% 29.96 in 10.0 mi WNW 10.4 mph - N/A   Clear
7:54 AM 26.1 °F 13.1 °F 17.1 °F 69% 29.97 in 10.0 mi WNW 17.3 mph - N/A   Clear
8:54 AM 28.9 °F 15.4 °F 18.0 °F 64% 29.98 in 10.0 mi WNW 21.9 mph 28.8 mph N/A   Clear
9:54 AM 30.9 °F 19.1 °F 18.0 °F 59% 29.98 in 10.0 mi WNW 18.4 mph 26.5 mph N/A   Partly Cloudy
10:54 AM 34.0 °F 22.7 °F 18.0 °F 52% 29.98 in 10.0 mi WNW 19.6 mph 29.9 mph N/A   Clear
11:54 AM 37.0 °F 26.4 °F 17.1 °F 44% 29.98 in 10.0 mi NW 20.7 mph 27.6 mph N/A   Partly Cloudy
12:54 PM 37.9 °F 27.3 °F 18.0 °F 45% 29.96 in 10.0 mi NW 21.9 mph 25.3 mph N/A   Partly Cloudy
1:54 PM 39.0 °F 30.3 °F 18.0 °F 43% 29.95 in 10.0 mi WNW 16.1 mph 21.9 mph N/A   Scattered Clouds
2:54 PM 39.0 °F 29.3 °F 17.1 °F 41% 29.94 in 10.0 mi NW 19.6 mph 26.5 mph N/A   Scattered Clouds
3:54 PM 39.9 °F 30.8 °F 19.0 °F 43% 29.94 in 10.0 mi WNW 18.4 mph 26.5 mph N/A   Scattered Clouds
4:54 PM 37.9 °F 28.9 °F 19.0 °F 47% 29.95 in 10.0 mi WNW 16.1 mph - N/A   Partly Cloudy
5:54 PM 36.0 °F 26.7 °F 19.0 °F 50% 29.96 in 10.0 mi NW 15.0 mph - N/A   Clear
6:54 PM 28.9 °F 22.8 °F 18.0 °F 64% 29.96 in 10.0 mi NNW 5.8 mph - N/A   Clear
7:54 PM 27.0 °F 21.6 °F 18.0 °F 69% 29.96 in 10.0 mi North 4.6 mph - N/A   Clear
8:54 PM 27.0 °F - 18.0 °F 69% 29.95 in 10.0 mi Calm Calm - N/A   Clear
9:54 PM 21.9 °F 17.2 °F 17.1 °F 82% 29.96 in 10.0 mi NW 3.5 mph - N/A   Clear
10:54 PM 23.0 °F - 18.0 °F 81% 29.95 in 8.0 mi Calm Calm - N/A   Clear
11:54 PM 21.9 °F - 18.0 °F 85% 29.94 in 7.0 mi Calm Calm - N/A   Clear